Regional Weather Roundup
Issued by NWS Glasgow, MT

Home | Current Version | Previous Version | Text Only | Print | Product List | Glossary On
Versions: 1 2 3 4 5 6 7 8 9 10 11 12 13 14 15 16 17 18 19 20 21 22 23 24 25 26 27 28 29 30 31 32 33 34 35 36 37 38 39 40 41 42 43 44 45 46 47 48 49 50
000
ASUS45 KGGW 270415
RWRGGW
HOURLY REGIONAL WEATHER ROUNDUP FOR NORTHEAST MONTANA
NATIONAL WEATHER SERVICE GLASGOW MONTANA
1000 PM MDT THU MAY 26 2016

NOTE: "FAIR" INDICATES FEW OR NO CLOUDS BELOW 12,000 FEET WITH NO
SIGNIFICANT WEATHER AND/OR OBSTRUCTIONS TO VISISBILITY.

NORTHEAST MONTANA


CITY           SKY/WX    TMP DP  RH WIND       PRES   REMARKS
GLASGOW        CLOUDY    55  50  83 NE13      29.86R
PLENTYWOOD       N/A     51  49  92 NE12G21     N/A
WOLF POINT     CLOUDY    57  51  80 NE8       29.86R
JORDAN           N/A     54  49  83 W8        29.86R
WINNETT          N/A     49  44  83 NE6G16      N/A
SIDNEY         CLOUDY    56  51  84 N6        29.84R
GLENDIVE       MOCLDY    54  48  82 NW6       29.88R
SCOBEY           N/A     49  41  74 NE7       29.89R
OPHEIM           N/A     50  46  87 NE6       29.75R

FORT PECK REPORTS


CITY           SKY/WX    TMP DP  RH WIND       PRES   REMARKS
FORT PECK        N/A     55  52  89 NE13        N/A
THE PINES        N/A     54  50  86 NE6         N/A

SOUTHEAST MONTANA


CITY           SKY/WX    TMP DP  RH WIND       PRES   REMARKS
BILLINGS       CLOUDY    55  44  66 E6        29.93R
MILES CITY     PTCLDY    54  48  80 W6        29.87R
BAKER          CLEAR     49  44  83 W3        29.87R
LIVINGSTON     CLOUDY    48  41  76 SE3       29.94R

CENTRAL MONTANA


CITY           SKY/WX    TMP DP  RH WIND       PRES   REMARKS
HAVRE          CLOUDY    57  51  80 E7        29.90R
LEWISTOWN      CLEAR     52  43  71 S5        29.94R
GREAT FALLS    CLOUDY    53  44  71 N5        29.93F
CUT BANK       PTCLDY    50  47  89 S3        29.90S
HELENA         CLOUDY    55  47  74 CALM      29.92R
BUTTE          CLOUDY    50  40  68 S5        29.98R
BOZEMAN        CLEAR     51  43  74 E6        29.95R

WESTERN MONTANA


CITY           SKY/WX    TMP DP  RH WIND       PRES   REMARKS
MISSOULA       CLOUDY    53  49  86 W5        29.94S
KALISPELL      NOT AVBL

NORTH DAKOTA


CITY           SKY/WX    TMP DP  RH WIND       PRES   REMARKS
WILLISTON      PTCLDY    53  48  83 N5        29.85R
DICKINSON      CLOUDY    51  42  71 W3        29.84R
MINOT          CLOUDY    57  52  83 NW5       29.83R
BISMARCK       CLEAR     60  48  64 N12       29.83R

SOUTHERN SASKATCHEWAN


CITY           SKY/WX    TMP DP  RH WIND       PRES   REMARKS
REGINA         MOCLDY    52  50  93 W7        29.87R
MOOSE JAW      MOCLDY    55  52  88 S7        29.89R
ESTEVAN        CLOUDY    48  48 100 W3        29.85R
SWIFT CURRENT  CLEAR     52  48  87 S8        29.90R




USA.gov is the U.S. government's official web portal to all federal, state and local government web resources and services.